Weather Roundup
Issued by NWS Chicago, IL

Home | Current Version | Previous Version | Text Only | Print | Product List | Glossary On
Versions: 1 2 3 4 5 6 7 8 9 10 11 12 13 14 15 16 17 18 19 20 21 22 23 24 25 26 27 28 29 30 31 32 33 34 35 36 37 38 39 40 41 42 43 44 45 46 47 48 49 50
000
NZUS59 KLOT 251606
HRRLOT

CHICAGO AREA WEATHER ROUNDUP
NATIONAL WEATHER SERVICE CHICAGO/ROMEOVILLE IL
1100 AM CDT SAT OCT 25 2014

NOTE: "FAIR" INDICATES FEW OR NO CLOUDS BELOW 12,000 FEET WITH NO
SIGNIFICANT WEATHER AND/OR OBSTRUCTIONS TO VISIBILITY.

* THESE STATIONS ARE NOT UNDER NWS QUALITY CONTROL. THEY ALSO MAY NOT
  REPORT WEATHER SUCH AS PRECIPITATION OR FOG.

ILZ005-006-012>014-019>023-251700-
NORTHEAST ILLINOIS

CITY           SKY/WX    TMP DP  RH WIND       PRES   REMARKS
OHARE          MOSUNNY   65  48  54 NW14      29.95R
MIDWAY         MOSUNNY   67  51  56 NW13      29.95R
AURORA         SUNNY     66  49  54 NW13      29.98R
LANSING*       SUNNY     64  55  71 NW9       29.96R
JOLIET*        SUNNY     64  53  69 NW9       29.98R
WAUKEGAN       SUNNY     64  44  48 NW9       29.93S
DUPAGE AIRPORT SUNNY     66  49  54 NW15      29.97R
WHEELING       SUNNY     66  48  52 NW9       29.97R
KANKAKEE*      MOSUNNY   62  56  81 W13       29.97F
MORRIS*        SUNNY     65  55  69 NW12      29.97S
LEWIS AIRPORT* SUNNY     64  52  66 NW12      29.98R
NORTHERLY IS     N/A     66  49  54 NW6         N/A
$$

WIZ051-052-058>065-066-070>072-251700-
SOUTHEAST WISCONSIN

CITY           SKY/WX    TMP DP  RH WIND       PRES   REMARKS
MILWAUKEE      MOSUNNY   63  42  46 W15G22    29.92R
KENOSHA*       SUNNY     65  45  48 W14       29.94R
RACINE*        SUNNY     64  42  44 NW10      29.94R
BURLINGTON     SUNNY     63  41  45 NW15G21   29.94F
WAUKESHA       SUNNY     61  43  51 W14       29.94S
WEST BEND      SUNNY     61  37  41 W16G23    29.91S
$$

INZ001>003-010>013-019-020-251700-
NORTHWEST INDIANA

CITY           SKY/WX    TMP DP  RH WIND       PRES   REMARKS
GARY*          MOSUNNY   66  55  68 W17       29.95S
MICHIGAN CITY* NOT AVBL
RENSSELAER*    NOT AVBL
VALPARAISO     MOSUNNY   63  55  75 W9        29.95S
$$

LMZ740>746-251700-
SOUTHERN LAKE MICHIGAN

STATION/POSITION TIME  SKY/WX   TEMP WIND        PRES    VSBY
                                AIR  DIR/SP/G
                 (UTC)          (F)  (DEG/KT/KT) (MB)    (MI)
HARRISON CRIB    1500            61  290/ 10/ 11   N/A
BURNHAM HARBOR   1600            66  300/ 10/ 13   N/A
CALUMET HARBOR   1600            66  300/  5/ 12 1012.9R
BURNS HARBOR     NOT AVBL
MICHIGAN CITY    1600            58  220/ 16/ 17   N/A
$$

ABBREVIATIONS USED IN REMARKS
   TC - TEMPERATURE IN CELSIUS
  WCI - WIND CHILL INDEX
   HX - HEAT INDEX
  VSB - VISIBILITY
$$



USA.gov is the U.S. government's official web portal to all federal, state and local government web resources and services.